{"data":{"norad_id":58990,"epoch":"2026-09-19T21:10:24.686688Z","epoch_age_seconds":67836,"freshness":"FRESH","line1":"1 58990U 24033A   26262.88223017 -.00000161  00000+0  00000+0 0  9999","line2":"2 58990   0.0200 232.0131 0001324 304.9325 221.5368  1.00273016 48013","mean_motion":1.00273016,"eccentricity":0.0001324,"inclination_deg":0.02,"raan_deg":232.0131,"arg_perigee_deg":304.9325,"mean_anomaly_deg":221.5368,"bstar":0,"rev_number":4801,"period_min":1436.0792738098,"perigee_km":35780.667305913,"apogee_km":35791.832435556,"semimajor_km":42164.386870735,"source":"CELESTRAK","updated_at":"2026-09-20T09:00:35.336029Z"}}